User: anonymous   Login
Location: Unspecified
(0.0000°N, 0.0000°E)
Time: 19:28:47
(UTC+00:00)
Language:

STARLINK-2750 - Orbit

View from above orbital plane
View from above orbital plane
View from above satellite
View from above satellite

Ground track
Ground track

The orbit is defined by the following mean orbital elements,

1 48691U          26145.11072950 +.00000000 +00000-0 +62175-4 0 00009
2 48691  53.1592  79.8703 0000955  90.1708 269.9403 15.31703425    07
Epoch (UTC): 25 May 2026 02:39:27
Eccentricity: 0.0000955
inclination: 53.1592°
perigee height: 470 km
apogee height: 471 km
right ascension of ascending node: 79.8703°
argument of perigee: 90.1708°
revolutions per day: 15.31703425
mean anomaly at epoch: 269.9403°

The dashed part of the orbit path shows where the satellite is in the earth's shadow,  

DLR